User: anonymous   Login
Location: Seminole
(32.7190°N, 102.6440°W)
Time: 18:01:56
(UTC-06:00)
Language:

Meteor 2-10 - Orbit

View from above orbital plane
View from above orbital plane
View from above satellite
View from above satellite

Ground track
Ground track

The orbit data is extracted from the following two-line orbital elements,

1 14452U 83109A   14332.50044287  .00000185  00000-0  68890-4 0  6604
2 14452 081.1621 296.6270 0090455 202.7021 157.0148 14.26284308616205
Epoch (UTC): 28 November 2014 12:00:38
Eccentricity: 0.0090455
inclination: 81.1621°
perigee height: 739 km
apogee height: 869 km
right ascension of ascending node: 296.6270°
argument of perigee: 202.7021°
revolutions per day: 14.26284308
mean anomaly at epoch: 157.0148°
orbit number at epoch: 61620

The dashed part of the orbit path shows where the satellite is in the earth's shadow,  

DLR